d.8/12 - Jorden passerer meteorsværmen Geminiderne. Op mod 120 stjerneskud i timen, topper 14-15 december.


Vejr3>N more information Vejr3>N


Vejr3>V more information Vejr3>V


3 timers nedbørs radar more information rain snow radar


besøg nogle andre vejrsider:

Template dokumentation
og downloads

And another site


Select another period ( hide this area )

enheder periode Custom range Directly to
metrisk engelsk både
dagens ugenligt månedlig årligt
use both date-selectors for a custom range
forgående dag
With this date

WeatherUnderground graphs for this period ( click here )


dagens sammenfatning af onsdag 12 december 2018
tid Temp. ( °C ) Dew pt. ( °C ) vind ( km/h ) fra vindstød ( km/h ) lufttryk ( hPa ) Humid.( % ) Rainrate ( cm ) solenergi ( W/m2 )
høj4,1 2,0 20,4 nord ( 965/1393 ) 13,8 1026,8 92 - 32
gennemsnit2,8 1,1 12,3 nord #79/113 7,9 1024,6 88 - 16 #10/113
lav1,9 0,2 5,6   3,4 1022,2 85 -  
dagens Tabular details for onsdag 12 december 2018
tid Temp. ( °C ) Dew pt. ( °C ) vind ( km/h ) fra vindstød ( km/h ) lufttryk ( hPa ) Humid.( % ) Rainrate ( cm ) solenergi ( W/m2 )
00:04 4,1 2,0 9,7 nord 6,6 1022,2 86 - -
00:07 4,1 1,9 9,3 nord 7,6 1022,2 86 - -
00:14 4,1 1,9 9,7 nnv 6,4 1022,3 86 - -
00:19 4,1 1,9 13,0 nord 6,1 1022,4 86 - -
00:24 4,1 1,9 18,5 nnø 7,1 1022,4 86 - -
00:29 4,1 1,9 14,8 nnv 9,7 1022,5 86 - -
00:34 4,1 2,0 13,0 nord 11,3 1022,6 86 - -
00:39 4,1 2,0 14,8 nnv 9,3 1022,7 86 - -
00:44 4,1 2,0 13,0 nnø 7,6 1022,6 86 - -
00:49 4,1 2,0 16,7 nnv 13,8 1022,7 86 - -
00:54 4,1 2,0 18,5 nord 13,0 1022,7 86 - -
00:59 4,1 1,9 18,5 nord 12,2 1022,8 86 - -
01:04 4,1 1,8 18,5 nnv 9,8 1022,8 85 - -
01:09 4,1 1,8 14,8 nnv 7,7 1022,8 85 - -
01:14 4,1 1,8 13,0 nord 11,4 1022,8 85 - -
01:19 4,1 1,8 14,8 nord 7,1 1022,9 85 - -
01:24 4,0 1,7 16,7 nord 9,8 1023,0 85 - -
01:29 4,0 1,7 13,0 nord 10,8 1022,9 85 - -
01:34 4,0 1,7 13,0 nnv 6,6 1023,0 85 - -
01:39 3,9 1,8 11,1 nnv 7,4 1023,1 86 - -
01:44 3,9 1,8 16,7 nnv 9,3 1023,0 86 - -
01:49 3,9 1,8 17,7 nord 12,2 1023,1 86 - -
01:54 3,9 1,8 18,5 nord 10,9 1023,2 86 - -
01:59 3,9 1,8 16,7 nord 9,5 1023,3 86 - -
02:04 3,9 1,8 17,7 nord 9,8 1023,2 86 - -
02:09 3,9 1,8 20,4 10,5 1023,4 86 - -
02:14 3,8 1,6 20,4 nord 12,1 1023,4 85 - -
02:19 3,8 1,5 18,5 nord 10,1 1023,4 85 - -
02:24 3,8 1,5 18,5 nord 9,3 1023,5 85 - -
02:29 3,7 1,4 16,7 nnv 11,9 1023,6 85 - -
02:34 3,7 1,4 16,7 nnv 11,7 1023,6 85 - -
02:39 3,6 1,3 14,8 nord 9,3 1023,8 85 - -
02:44 3,5 1,4 12,9 nord 9,2 1023,8 86 - -
02:49 3,4 1,3 7,4 nord 7,1 1023,8 86 - -
02:54 3,4 1,3 9,3 nnø 6,6 1023,8 86 - -
02:59 3,3 1,4 11,1 nnv 8,7 1023,8 87 - -
03:04 3,3 1,4 14,5 nnv 10,9 1023,8 87 - -
03:09 3,3 1,3 11,1 nord 8,4 1023,8 87 - -
03:14 3,2 1,3 14,8 nord 7,9 1023,8 87 - -
03:19 3,2 1,2 14,8 nord 9,8 1023,9 87 - -
03:24 3,1 1,2 16,1 nord 10,3 1023,9 87 - -
03:29 3,1 0,9 16,7 nnø 8,0 1024,0 86 - -
03:34 2,9 0,8 14,8 nord 9,8 1024,0 86 - -
03:39 2,8 0,7 16,7 nord 9,5 1024,0 86 - -
03:44 2,7 0,7 14,8 nord 8,5 1024,0 87 - -
03:49 2,6 0,6 13,0 nord 9,0 1024,1 87 - -
03:54 2,4 0,5 16,7 nord 11,9 1024,1 87 - -
03:59 2,3 0,4 16,7 nord 8,7 1024,1 87 - -
04:04 2,3 0,3 14,8 nord 8,5 1024,1 87 - -
04:09 2,2 0,4 14,5 nord 10,5 1024,1 88 - -
04:14 2,2 0,4 14,8 nord 9,0 1024,2 88 - -
04:19 2,1 0,3 14,8 nord 7,6 1024,2 88 - -
04:24 2,1 0,3 11,1 nnv 7,9 1024,3 88 - -
04:29 2,0 0,2 11,1 nnv 9,3 1024,3 88 - -
04:34 2,0 0,4 13,0 nord 9,0 1024,3 89 - -
04:39 2,0 0,4 11,3 nnv 10,0 1024,4 89 - -
04:44 2,0 0,4 14,8 nnv 9,8 1024,4 89 - -
04:49 2,0 0,4 11,1 nord 7,7 1024,5 89 - -
04:54 2,1 0,6 14,8 nord 8,0 1024,6 90 - -
04:59 2,1 0,5 11,3 nord 9,2 1024,7 89 - -
05:04 2,2 0,7 14,8 nord 7,9 1024,7 90 - -
05:09 2,2 0,7 13,0 nord 9,8 1024,8 90 - -
05:14 2,2 0,6 9,7 nord 6,1 1024,8 89 - -
05:19 2,2 0,6 9,7 nord 6,8 1024,8 89 - -
05:24 2,2 0,6 14,8 nnv 9,7 1024,8 89 - -
05:29 2,3 0,7 11,1 nord 7,1 1024,8 89 - -
05:34 2,3 0,7 8,0 nord 4,2 1024,9 89 - -
05:39 2,2 0,8 9,7 nord 6,0 1024,9 90 - -
05:44 2,2 0,8 8,0 nord 5,0 1025,0 90 - -
05:49 2,2 0,8 8,0 nnv 6,4 1025,1 90 - -
05:54 2,3 0,8 9,3 nord 4,5 1025,1 90 - -
05:59 2,3 0,8 11,3 nord 7,2 1025,1 90 - -
06:04 2,3 0,8 9,3 nord 6,3 1025,2 90 - -
06:09 2,3 0,8 7,4 nnø 5,1 1025,3 90 - -
06:14 2,3 0,8 11,1 nord 7,4 1025,3 90 - -
06:19 2,3 0,8 16,7 nord 9,7 1025,4 90 - -
06:24 2,3 0,8 11,1 nord 6,9 1025,4 90 - -
06:29 2,3 0,8 8,0 nord 6,8 1025,4 90 - -
06:34 2,3 0,8 11,1 nord 7,1 1025,5 90 - -
06:39 2,3 0,8 11,1 nord 9,8 1025,5 90 - -
06:44 2,3 0,8 9,3 nord 6,6 1025,6 90 - -
06:49 2,3 0,8 9,3 nord 7,9 1025,6 90 - -
06:54 2,3 0,8 6,4 nord 5,5 1025,7 90 - -
06:59 2,3 0,8 11,1 nord 7,6 1025,8 90 - -
07:04 2,3 1,0 9,3 nord 7,2 1025,8 91 - -
07:09 2,3 1,0 9,3 nord 8,4 1025,9 91 - -
07:14 2,3 1,0 11,1 nord 4,8 1026,0 91 - -
07:19 2,3 0,9 7,4 nord 4,8 1026,0 91 - -
07:24 2,3 1,0 11,1 nord 6,3 1026,1 91 - -
07:29 2,3 1,0 11,1 nord 7,2 1026,1 91 - -
07:34 2,3 1,0 9,3 nnø 6,8 1026,1 91 - -
07:39 2,3 1,0 9,3 nord 5,0 1026,1 91 - -
07:44 2,3 0,9 9,3 nord 6,9 1026,0 91 - -
07:49 2,3 0,9 5,6 nord 3,4 1026,0 91 - -
07:54 2,3 0,9 9,3 nnv 3,7 1026,0 91 - -
07:59 2,2 0,9 9,3 nord 6,6 1026,0 91 - -
08:04 2,2 0,8 7,4 nord 4,7 1026,0 91 - -
08:09 2,1 0,8 9,3 nord 5,1 1026,1 91 - -
08:14 2,1 0,7 11,3 nnø 7,1 1026,2 91 - -
08:19 2,1 0,7 11,1 nord 7,6 1026,2 91 - -
08:24 2,0 0,7 9,3 nnv 5,6 1026,2 91 - -
08:29 2,0 0,7 7,4 nord 5,0 1026,3 91 - -
08:34 1,9 0,6 7,4 nnv 4,5 1026,3 91 - -
08:39 1,9 0,6 8,0 nord 5,6 1026,3 91 - 5
08:44 1,9 0,6 7,4 nnv 6,4 1026,4 91 - 7
08:49 2,0 0,7 8,0 nord 4,8 1026,4 91 - 7
08:54 2,0 0,7 7,4 nord 4,3 1026,5 91 - 9
08:59 2,0 0,8 7,4 nnv 4,8 1026,6 92 - 12
09:04 2,1 0,9 7,4 nord 4,8 1026,6 92 - 18
09:09 2,1 0,9 13,0 nord 6,9 1026,7 92 - 21
09:14 2,2 1,0 11,3 nnv 8,7 1026,7 92 - 23
09:19 2,2 0,9 9,3 nnø 6,1 1026,7 91 - 30
09:24 2,3 1,1 13,0 nord 8,0 1026,8 92 - 32
dagens sammenfatning af onsdag 12 december 2018
tid Temp. ( °C ) Dew pt. ( °C ) vind ( km/h ) fra vindstød ( km/h ) lufttryk ( hPa ) Humid.( % ) Rainrate ( cm ) solenergi ( W/m2 )
høj4,1 2,0 20,4 nord ( 965/1393 ) 13,8 1026,8 92 - 32
gennemsnit2,8 1,1 12,3 nord #79/113 7,9 1024,6 88 - 16 #10/113
lav1,9 0,2 5,6   3,4 1022,2 85 -  
dagens Tabular details for onsdag 12 december 2018
tid Temp. ( °C ) Dew pt. ( °C ) vind ( km/h ) fra vindstød ( km/h ) lufttryk ( hPa ) Humid.( % ) Rainrate ( cm ) solenergi ( W/m2 )
00:04 4,1 2,0 9,7 nord 6,6 1022,2 86 - -
00:07 4,1 1,9 9,3 nord 7,6 1022,2 86 - -
00:14 4,1 1,9 9,7 nnv 6,4 1022,3 86 - -
00:19 4,1 1,9 13,0 nord 6,1 1022,4 86 - -
00:24 4,1 1,9 18,5 nnø 7,1 1022,4 86 - -
00:29 4,1 1,9 14,8 nnv 9,7 1022,5 86 - -
00:34 4,1 2,0 13,0 nord 11,3 1022,6 86 - -
00:39 4,1 2,0 14,8 nnv 9,3 1022,7 86 - -
00:44 4,1 2,0 13,0 nnø 7,6 1022,6 86 - -
00:49 4,1 2,0 16,7 nnv 13,8 1022,7 86 - -
00:54 4,1 2,0 18,5 nord 13,0 1022,7 86 - -
00:59 4,1 1,9 18,5 nord 12,2 1022,8 86 - -
01:04 4,1 1,8 18,5 nnv 9,8 1022,8 85 - -
01:09 4,1 1,8 14,8 nnv 7,7 1022,8 85 - -
01:14 4,1 1,8 13,0 nord 11,4 1022,8 85 - -
01:19 4,1 1,8 14,8 nord 7,1 1022,9 85 - -
01:24 4,0 1,7 16,7 nord 9,8 1023,0 85 - -
01:29 4,0 1,7 13,0 nord 10,8 1022,9 85 - -
01:34 4,0 1,7 13,0 nnv 6,6 1023,0 85 - -
01:39 3,9 1,8 11,1 nnv 7,4 1023,1 86 - -
01:44 3,9 1,8 16,7 nnv 9,3 1023,0 86 - -
01:49 3,9 1,8 17,7 nord 12,2 1023,1 86 - -
01:54 3,9 1,8 18,5 nord 10,9 1023,2 86 - -
01:59 3,9 1,8 16,7 nord 9,5 1023,3 86 - -
02:04 3,9 1,8 17,7 nord 9,8 1023,2 86 - -
02:09 3,9 1,8 20,4 10,5 1023,4 86 - -
02:14 3,8 1,6 20,4 nord 12,1 1023,4 85 - -
02:19 3,8 1,5 18,5 nord 10,1 1023,4 85 - -
02:24 3,8 1,5 18,5 nord 9,3 1023,5 85 - -
02:29 3,7 1,4 16,7 nnv 11,9 1023,6 85 - -
02:34 3,7 1,4 16,7 nnv 11,7 1023,6 85 - -
02:39 3,6 1,3 14,8 nord 9,3 1023,8 85 - -
02:44 3,5 1,4 12,9 nord 9,2 1023,8 86 - -
02:49 3,4 1,3 7,4 nord 7,1 1023,8 86 - -
02:54 3,4 1,3 9,3 nnø 6,6 1023,8 86 - -
02:59 3,3 1,4 11,1 nnv 8,7 1023,8 87 - -
03:04 3,3 1,4 14,5 nnv 10,9 1023,8 87 - -
03:09 3,3 1,3 11,1 nord 8,4 1023,8 87 - -
03:14 3,2 1,3 14,8 nord 7,9 1023,8 87 - -
03:19 3,2 1,2 14,8 nord 9,8 1023,9 87 - -
03:24 3,1 1,2 16,1 nord 10,3 1023,9 87 - -
03:29 3,1 0,9 16,7 nnø 8,0 1024,0 86 - -
03:34 2,9 0,8 14,8 nord 9,8 1024,0 86 - -
03:39 2,8 0,7 16,7 nord 9,5 1024,0 86 - -
03:44 2,7 0,7 14,8 nord 8,5 1024,0 87 - -
03:49 2,6 0,6 13,0 nord 9,0 1024,1 87 - -
03:54 2,4 0,5 16,7 nord 11,9 1024,1 87 - -
03:59 2,3 0,4 16,7 nord 8,7 1024,1 87 - -
04:04 2,3 0,3 14,8 nord 8,5 1024,1 87 - -
04:09 2,2 0,4 14,5 nord 10,5 1024,1 88 - -
04:14 2,2 0,4 14,8 nord 9,0 1024,2 88 - -
04:19 2,1 0,3 14,8 nord 7,6 1024,2 88 - -
04:24 2,1 0,3 11,1 nnv 7,9 1024,3 88 - -
04:29 2,0 0,2 11,1 nnv 9,3 1024,3 88 - -
04:34 2,0 0,4 13,0 nord 9,0 1024,3 89 - -
04:39 2,0 0,4 11,3 nnv 10,0 1024,4 89 - -
04:44 2,0 0,4 14,8 nnv 9,8 1024,4 89 - -
04:49 2,0 0,4 11,1 nord 7,7 1024,5 89 - -
04:54 2,1 0,6 14,8 nord 8,0 1024,6 90 - -
04:59 2,1 0,5 11,3 nord 9,2 1024,7 89 - -
05:04 2,2 0,7 14,8 nord 7,9 1024,7 90 - -
05:09 2,2 0,7 13,0 nord 9,8 1024,8 90 - -
05:14 2,2 0,6 9,7 nord 6,1 1024,8 89 - -
05:19 2,2 0,6 9,7 nord 6,8 1024,8 89 - -
05:24 2,2 0,6 14,8 nnv 9,7 1024,8 89 - -
05:29 2,3 0,7 11,1 nord 7,1 1024,8 89 - -
05:34 2,3 0,7 8,0 nord 4,2 1024,9 89 - -
05:39 2,2 0,8 9,7 nord 6,0 1024,9 90 - -
05:44 2,2 0,8 8,0 nord 5,0 1025,0 90 - -
05:49 2,2 0,8 8,0 nnv 6,4 1025,1 90 - -
05:54 2,3 0,8 9,3 nord 4,5 1025,1 90 - -
05:59 2,3 0,8 11,3 nord 7,2 1025,1 90 - -
06:04 2,3 0,8 9,3 nord 6,3 1025,2 90 - -
06:09 2,3 0,8 7,4 nnø 5,1 1025,3 90 - -
06:14 2,3 0,8 11,1 nord 7,4 1025,3 90 - -
06:19 2,3 0,8 16,7 nord 9,7 1025,4 90 - -
06:24 2,3 0,8 11,1 nord 6,9 1025,4 90 - -
06:29 2,3 0,8 8,0 nord 6,8 1025,4 90 - -
06:34 2,3 0,8 11,1 nord 7,1 1025,5 90 - -
06:39 2,3 0,8 11,1 nord 9,8 1025,5 90 - -
06:44 2,3 0,8 9,3 nord 6,6 1025,6 90 - -
06:49 2,3 0,8 9,3 nord 7,9 1025,6 90 - -
06:54 2,3 0,8 6,4 nord 5,5 1025,7 90 - -
06:59 2,3 0,8 11,1 nord 7,6 1025,8 90 - -
07:04 2,3 1,0 9,3 nord 7,2 1025,8 91 - -
07:09 2,3 1,0 9,3 nord 8,4 1025,9 91 - -
07:14 2,3 1,0 11,1 nord 4,8 1026,0 91 - -
07:19 2,3 0,9 7,4 nord 4,8 1026,0 91 - -
07:24 2,3 1,0 11,1 nord 6,3 1026,1 91 - -
07:29 2,3 1,0 11,1 nord 7,2 1026,1 91 - -
07:34 2,3 1,0 9,3 nnø 6,8 1026,1 91 - -
07:39 2,3 1,0 9,3 nord 5,0 1026,1 91 - -
07:44 2,3 0,9 9,3 nord 6,9 1026,0 91 - -
07:49 2,3 0,9 5,6 nord 3,4 1026,0 91 - -
07:54 2,3 0,9 9,3 nnv 3,7 1026,0 91 - -
07:59 2,2 0,9 9,3 nord 6,6 1026,0 91 - -
08:04 2,2 0,8 7,4 nord 4,7 1026,0 91 - -
08:09 2,1 0,8 9,3 nord 5,1 1026,1 91 - -
08:14 2,1 0,7 11,3 nnø 7,1 1026,2 91 - -
08:19 2,1 0,7 11,1 nord 7,6 1026,2 91 - -
08:24 2,0 0,7 9,3 nnv 5,6 1026,2 91 - -
08:29 2,0 0,7 7,4 nord 5,0 1026,3 91 - -
08:34 1,9 0,6 7,4 nnv 4,5 1026,3 91 - -
08:39 1,9 0,6 8,0 nord 5,6 1026,3 91 - 5
08:44 1,9 0,6 7,4 nnv 6,4 1026,4 91 - 7
08:49 2,0 0,7 8,0 nord 4,8 1026,4 91 - 7
08:54 2,0 0,7 7,4 nord 4,3 1026,5 91 - 9
08:59 2,0 0,8 7,4 nnv 4,8 1026,6 92 - 12
09:04 2,1 0,9 7,4 nord 4,8 1026,6 92 - 18
09:09 2,1 0,9 13,0 nord 6,9 1026,7 92 - 21
09:14 2,2 1,0 11,3 nnv 8,7 1026,7 92 - 23
09:19 2,2 0,9 9,3 nnø 6,1 1026,7 91 - 30
09:24 2,3 1,1 13,0 nord 8,0 1026,8 92 - 32

Download your copy of this data-set  here

Our weather-data as stored at Weather Underground. script udviklet af Jim McMurry. tilpasset til dette template Leuven-Template.eu

du finder også vores vejrinformationer på:

European Weather Network

Weather Underground

AWEKAS

WeatherlinkIP

Citizen Weather Observer Program (CWOP)

udstyr som vi anvender:

vejrstation
Davis VP2+

vejrprogram
Weather Display

vejrserver
Dell E6400

hjemmeside host
Webhosting.dk

Davis VP2+

Weather Display

Dell E6400

Webhosting.dk